Location: Gleizolles
(44.4833°N, 6.7667°E)
Time: 20:37:09
(UTC+00:00)

Tiros 1 despin weight - Pass Details

Date: 29 June 2024
Orbit: 576 x 620 km, 48.2° (Epoch: 19 July)

Event Time Altitude Azimuth Distance (km) Brightness Sun altitude
Rises 07:25:55 0° 187° (S) 2,845 ? 35.3°
Reaches altitude 10° 07:29:26 10° 158° (SSE) 1,957 ? 35.9°
Maximum altitude 07:31:21 13° 133° (SE) 1,798 ? 36.2°
Drops below altitude 10° 07:33:17 10° 107° (ESE) 1,972 ? 36.6°
Sets 07:36:51 0° 79° (E) 2,889 ? 37.2°
